Doylestown, PA

3:42 PM EST on December 05, 2019 (GMT -0500)
Doylestown

Weather History for KDYL - October, 2019

Change the Weather History Date:

Tuesday, October 1, 2019

  Actual Average (WUND) Record (WUND)
Temperature  
Mean Temperature 73 °F -  
Max Temperature 84 °F - - (-1)
Min Temperature 62 °F - - (-1)
Cooling Degree Days 8    
Growing Degree Days 23 (Base 50)    
Moisture  
Dew Point 61 °F    
Average Humidity 68    
Maximum Humidity 84    
Minimum Humidity 51    
Precipitation  
Precipitation 0.00 in - - ()
Sea Level Pressure  
Sea Level Pressure 30.06 in    
Wind  
Wind Speed 3 mph (SSW)    
Max Wind Speed 9 mph    
Max Gust Speed 17 mph    
Visibility 10 miles    
Events      
Averages and records for this station are not official NWS values.
T = Trace of Precipitation, MM = Missing Value Source: NWS Daily Summary

Daily Weather History Graph

Daily Weather History Graph

Search for Another Location

Airport or City:

Astronomy

Oct. 01, 2019 Rise Set
Actual Time 6:56 AM EDT 6:43 PM EDT
Civil Twilight 6:29 AM EDT 7:10 PM EDT
Nautical Twilight 5:57 AM EDT 7:41 PM EDT
Astronomical Twilight 5:26 AM EDT 8:13 PM EDT
Moon 10:10 AM EDT (10/1) 8:54 PM EDT (10/1)
Length of Visible Light 12h 40m
Length of Day
11h 46m
Waxing Crescent, 12% of the Moon is Illuminated
Oct 1
Waxing Crescent
Oct 5
First Quarter
Oct 13
Full
Oct 21
Last Quarter
Oct 27
New

Hourly Weather History & Observations

Time (EDT) Temp. Heat Index Dew Point Humidity Pressure Visibility Wind Dir Wind Speed Gust Speed Precip Events Conditions
12:54 AM 63.0 °F - 55.0 °F 75% 30.18 in 10.0 mi Calm Calm - N/A   Overcast
1:54 AM 63.0 °F - 55.0 °F 75% 30.17 in 10.0 mi Calm Calm - N/A   Overcast
2:54 AM 63.0 °F - 55.9 °F 78% 30.17 in 10.0 mi Calm Calm - N/A   Overcast
3:08 AM 62.1 °F - 55.9 °F 80% 30.16 in 10.0 mi Calm Calm - N/A   Overcast
3:54 AM 62.1 °F - 55.9 °F 80% 30.15 in 10.0 mi SSE 3.5 mph - N/A   Overcast
4:54 AM 62.1 °F - 55.9 °F 80% 30.15 in 10.0 mi Calm Calm - N/A   Overcast
5:54 AM 62.1 °F - 57.0 °F 84% 30.14 in 10.0 mi South 3.5 mph - N/A   Overcast
6:54 AM 63.0 °F - 57.0 °F 81% 30.14 in 10.0 mi Calm Calm - N/A   Overcast
7:54 AM 64.0 °F - 57.0 °F 78% 30.14 in 10.0 mi SSW 4.6 mph - N/A   Overcast
8:54 AM 66.0 °F - 57.9 °F 75% 30.13 in 10.0 mi South 4.6 mph - N/A   Overcast
9:54 AM 69.1 °F - 59.0 °F 70% 30.12 in 10.0 mi SW 8.1 mph - N/A   Overcast
10:54 AM 73.0 °F - 59.0 °F 61% 30.10 in 10.0 mi SW 9.2 mph 17.3 mph N/A   Overcast
11:54 AM 75.0 °F - 60.1 °F 60% 30.09 in 10.0 mi SW 8.1 mph - N/A   Overcast
12:54 PM 78.1 °F - 62.1 °F 58% 30.06 in 10.0 mi Variable 5.8 mph - N/A   Mostly Cloudy
1:17 PM 80.1 °F 81.2 °F 62.1 °F 54% 30.06 in 10.0 mi Variable 4.6 mph - N/A   Scattered Clouds
1:54 PM 80.1 °F 81.5 °F 63.0 °F 56% 30.03 in 10.0 mi SW 6.9 mph - N/A   Clear
2:54 PM 82.0 °F 83.1 °F 63.0 °F 52% 30.01 in 10.0 mi SSW 8.1 mph - N/A   Clear
3:54 PM 84.0 °F 85.4 °F 64.0 °F 51% 29.98 in 10.0 mi SSW 8.1 mph - N/A   Clear
4:54 PM 84.0 °F 85.8 °F 64.9 °F 53% 29.96 in 10.0 mi SW 6.9 mph - N/A   Clear
5:54 PM 82.9 °F 84.6 °F 64.9 °F 54% 29.96 in 10.0 mi SW 8.1 mph - N/A   Clear
6:54 PM 79.0 °F - 64.9 °F 62% 29.96 in 10.0 mi South 4.6 mph - N/A   Clear
7:54 PM 78.1 °F - 64.9 °F 64% 29.96 in 10.0 mi SSW 4.6 mph - N/A   Clear
8:54 PM 75.9 °F - 64.9 °F 69% 29.96 in 10.0 mi South 4.6 mph - N/A   Clear
9:54 PM 73.9 °F - 64.9 °F 73% 29.96 in 10.0 mi South 4.6 mph - N/A   Clear
10:54 PM 73.0 °F - 64.9 °F 76% 29.94 in 10.0 mi South 4.6 mph - N/A   Clear
11:54 PM 72.0 °F - 64.9 °F 78% 29.91 in 10.0 mi Variable 5.8 mph - N/A   Clear